QPF
0.10 0.00 0.00 0.00 0.00 0.01 0.01 0.00 0.00 0.01 0.00 0.00 0.00 0.00 0.00 0.00 0.00 0.00 0.00 0.00 0.00 0.00 0.00 0.00 0.00 0.00 0.00 0.00 0.00 0.00 0.00 0.00 0.00 0.00 0.00 0.00 0.00 0.00 0.00 0.00 0.00 0.00 0.00
0.03 0.00 0.00 0.00 0.00 0.01 0.01 0.00 0.01 0.01 0.00 0.00 0.00 0.00 0.01 0.01 0.00 0.00 0.00 0.00 0.00 0.00 0.00 0.00 0.00 0.00 0.00 0.00 0.00 0.00 0.00 0.00 0.00 0.00 0.00 0.00 0.00 0.00 0.00 0.00 0.00 0.00 0.00
0.00 0.00 0.00 0.00 0.00 0.00 0.00 0.01 0.01 0.01 0.00 0.00 0.00 0.01 0.01 0.00 0.00 0.00 0.00 0.00 0.00 0.00 0.00 0.00 0.00 0.00 0.00 0.00 0.00 0.00 0.00 0.00 0.00 0.00 0.00 0.00 0.00 0.00 0.00 0.00 0.00 0.00 0.00
0.00 0.00 0.00 0.00 0.00 0.00 0.00 0.00 0.00 0.00 0.00 0.00 0.02 0.02 0.01 0.00 0.00 0.00 0.00 0.00 0.00 0.00 0.00 0.00 0.00 0.00 0.00 0.00 0.00 0.00 0.00 0.00 0.00 0.00 0.00 0.00 0.00 0.00 0.00 0.00 0.00 0.00 0.00
0.00 0.00 0.00 0.00 0.00 0.00 0.00 0.00 0.00 0.00 0.00 0.00 0.06 0.01 0.01 0.00 0.00 0.00 0.00 0.00 0.00 0.00 0.00 0.00 0.00 0.00 0.00 0.00 0.00 0.00 0.00 0.00 0.00 0.00 0.00 0.00 0.00 0.00 0.00 0.00 0.00 0.00 0.00
0.00 0.00 0.00 0.00 0.00 0.00 0.00 0.00 0.00 0.00 0.00 0.01 0.02 0.01 0.01 0.01 0.00 0.00 0.00 0.00 0.00 0.00 0.00 0.00 0.00 0.00 0.00 0.00 0.00 0.00 0.00 0.00 0.00 0.00 0.00 0.00 0.00 0.01 0.01 0.01 0.01 0.01 0.02
0.00 0.00 0.00 0.00 0.00 0.00 0.00 0.00 0.00 0.00 0.00 0.00 0.01 0.01 0.01 0.00 0.00 0.00 0.00 0.00 0.00 0.00 0.00 0.00 0.00 0.00 0.00 0.00 0.00 0.00 0.00 0.00 0.00 0.00 0.00 0.00 0.01 0.02 0.02 0.02 0.03 0.03 0.04
0.00 0.00 0.00 0.00 0.00 0.00 0.00 0.00 0.00 0.00 0.00 0.00 0.01 0.01 0.00 0.00 0.00 0.00 0.00 0.00 0.00 0.00 0.00 0.00 0.00 0.00 0.00 0.00 0.00 0.00 0.00 0.00 0.00 0.00 0.00 0.00 0.00 0.01 0.01 0.02 0.01 0.01 0.00
0.00 0.00 0.00 0.00 0.00 0.00 0.00 0.00 0.00 0.00 0.00 0.00 0.00 0.00 0.00 0.00 0.00 0.00 0.00 0.00 0.00 0.00 0.00 0.00 0.00 0.00 0.00 0.00 0.00 0.00 0.00 0.00 0.00 0.00 0.00 0.00 0.00 0.02 0.03 0.01 0.00 0.00 0.00
0.00 0.00 0.00 0.00 0.00 0.00 0.00 0.00 0.00 0.00 0.00 0.00 0.00 0.00 0.00 0.00 0.00 0.00 0.00 0.00 0.00 0.00 0.00 0.00 0.00 0.00 0.00 0.00 0.00 0.00 0.00 0.00 0.00 0.00 0.00 0.00 0.02 0.02 0.01 0.00 0.00 0.00 0.00
0.00 0.00 0.00 0.00 0.00 0.00 0.00 0.00 0.00 0.00 0.00 0.00 0.00 0.00 0.00 0.00 0.00 0.00 0.00 0.00 0.00 0.00 0.00 0.00 0.00 0.00 0.00 0.00 0.00 0.00 0.00 0.00 0.00 0.00 0.00 0.00 0.01 0.00 0.00 0.00 0.00 0.00 0.00
0.00 0.00 0.00 0.00 0.00 0.00 0.00 0.00 0.00 0.00 0.00 0.00 0.00 0.00 0.00 0.00 0.00 0.00 0.00 0.00 0.00 0.00 0.00 0.00 0.00 0.00 0.00 0.00 0.00 0.00 0.00 0.00 0.00 0.00 0.00 0.00 0.00 0.00 0.00 0.00 0.00 0.00 0.00
0.00 0.00 0.00 0.00 0.00 0.00 0.00 0.00 0.00 0.00 0.00 0.00 0.00 0.00 0.00 0.00 0.00 0.00 0.00 0.00 0.00 0.00 0.00 0.00 0.00 0.00 0.00 0.00 0.00 0.00 0.00 0.00 0.00 0.00 0.00 0.00 0.00 0.00 0.00 0.00 0.00 0.00 0.00
0.00 0.00 0.00 0.00 0.00 0.00 0.00 0.00 0.00 0.00 0.00 0.00 0.00 0.00 0.00 0.00 0.00 0.00 0.00 0.00 0.00 0.00 0.00 0.00 0.00 0.00 0.00 0.00 0.00 0.00 0.00 0.00 0.00 0.00 0.00 0.00 0.00 0.00 0.00 0.00 0.00 0.00 0.00
0.00 0.00 0.00 0.00 0.00 0.00 0.00 0.00 0.00 0.00 0.00 0.00 0.00 0.00 0.00 0.00 0.00 0.00 0.00 0.00 0.00 0.00 0.00 0.00 0.00 0.00 0.00 0.00 0.00 0.00 0.00 0.00 0.00 0.00 0.00 0.00 0.00 0.00 0.00 0.00 0.00 0.00 0.00
0.00 0.00 0.01 0.00 0.00 0.00 0.00 0.00 0.00 0.00 0.00 0.00 0.00 0.00 0.00 0.00 0.00 0.00 0.00 0.00 0.00 0.00 0.00 0.00 0.00 0.00 0.00 0.00 0.00 0.00 0.00 0.00 0.00 0.00 0.00 0.00 0.00 0.00 0.00 0.00 0.00 0.00 0.00
0.00 0.00 0.00 0.00 0.00 0.00 0.00 0.00 0.00 0.00 0.00 0.00 0.00 0.00 0.00 0.00 0.00 0.00 0.00 0.00 0.00 0.00 0.00 0.00 0.00 0.00 0.00 0.00 0.00 0.00 0.00 0.00 0.00 0.00 0.00 0.00 0.00 0.00 0.00 0.00 0.00 0.00 0.00
0.00 0.00 0.00 0.00 0.00 0.00 0.00 0.00 0.00 0.00 0.00 0.00 0.00 0.00 0.00 0.00 0.00 0.00 0.00 0.00 0.00 0.00 0.00 0.00 0.00 0.00 0.00 0.00 0.00 0.00 0.00 0.00 0.00 0.00 0.00 0.00 0.00 0.00 0.00 0.00 0.00 0.00 0.00
0.00 0.00 0.00 0.00 0.00 0.00 0.00 0.00 0.00 0.00 0.00 0.00 0.00 0.00 0.00 0.00 0.00 0.00 0.00 0.00 0.00 0.00 0.00 0.00 0.00 0.00 0.00 0.00 0.00 0.00 0.00 0.00 0.00 0.00 0.00 0.00 0.00 0.00 0.00 0.00 0.00 0.00 0.00
0.00 0.00 0.00 0.00 0.00 0.00 0.00 0.00 0.00 0.00 0.00 0.00 0.00 0.00 0.00 0.00 0.00 0.00 0.00 0.00 0.00 0.00 0.00 0.00 0.00 0.00 0.00 0.00 0.00 0.00 0.00 0.00 0.00 0.00 0.00 0.00 0.00 0.00 0.00 0.00 0.00 0.00 0.00
0.00 0.00 0.00 0.00 0.00 0.00 0.00 0.00 0.00 0.00 0.00 0.00 0.00 0.00 0.00 0.00 0.00 0.00 0.00 0.00 0.00 0.00 0.00 0.00 0.00 0.00 0.00 0.00 0.00 0.00 0.00 0.00 0.00 0.00 0.00 0.00 0.00 0.00 0.00 0.00 0.00 0.00 0.00
0.00 0.00 0.00 0.00 0.00 0.00 0.00 0.00 0.00 0.00 0.00 0.00 0.00 0.00 0.00 0.00 0.00 0.00 0.00 0.00 0.00 0.00 0.00 0.00 0.00 0.00 0.00 0.00 0.00 0.00 0.00 0.00 0.00 0.00 0.00 0.00 0.00 0.00 0.00 0.00 0.00 0.00 0.00
0.00 0.00 0.00 0.00 0.00 0.00 0.00 0.00 0.00 0.00 0.00 0.00 0.00 0.00 0.00 0.00 0.00 0.00 0.00 0.00 0.00 0.00 0.00 0.00 0.00 0.00 0.00 0.00 0.00 0.00 0.00 0.00 0.00 0.00 0.00 0.00 0.00 0.00 0.00 0.00 0.00 0.00 0.00
0.00 0.00 0.00 0.00 0.00 0.00 0.00 0.00 0.00 0.00 0.00 0.00 0.00 0.00 0.00 0.00 0.00 0.00 0.00 0.00 0.00 0.00 0.00 0.00 0.00 0.00 0.00 0.00 0.00 0.00 0.00 0.00 0.00 0.00 0.00 0.00 0.00 0.00 0.00 0.00 0.00 0.00 0.00
0.00 0.00 0.00 0.00 0.00 0.00 0.00 0.00 0.00 0.00 0.00 0.00 0.00 0.00 0.00 0.00 0.00 0.00 0.00 0.00 0.00 0.00 0.00 0.00 0.00 0.00 0.00 0.00 0.00 0.00 0.00 0.00 0.00 0.00 0.00 0.00 0.00 0.00 0.00 0.00 0.00 0.00 0.00
0.00 0.00 0.00 0.00 0.00 0.00 0.00 0.00 0.00 0.00 0.00 0.00 0.00 0.00 0.00 0.00 0.00 0.00 0.00 0.00 0.00 0.00 0.00 0.00 0.00 0.00 0.00 0.00 0.00 0.00 0.00 0.00 0.00 0.00 0.00 0.00 0.00 0.00 0.00 0.00 0.00 0.00 0.00
MSLP
1021.40 1021.09 1021.00 1021.11 1021.07 1021.30 1021.41 1021.47 1021.52 1021.55 1021.63 1021.73 1021.87 1022.01 1022.12 1022.13 1022.20 1022.23 1022.35 1022.54 1022.59 1022.61 1022.68 1022.78 1022.85 1022.89 1022.91 1022.97 1022.98 1023.02 1023.10 1023.12 1023.10 1023.00 1022.92 1022.84 1022.76 1022.76 1022.82 1022.84 1022.74 1022.58 1022.40
1020.90 1021.05 1021.18 1021.22 1021.29 1021.47 1021.59 1021.72 1021.82 1021.82 1021.95 1022.10 1022.27 1022.31 1022.35 1022.47 1022.54 1022.63 1022.83 1022.85 1022.90 1022.98 1023.06 1023.15 1023.25 1023.33 1023.32 1023.30 1023.30 1023.23 1023.48 1023.58 1023.55 1023.51 1023.44 1023.27 1023.19 1023.21 1023.23 1023.15 1022.93 1022.75 1022.72
1020.82 1021.10 1021.24 1021.34 1021.53 1021.70 1021.84 1021.97 1022.06 1022.08 1022.18 1022.36 1022.46 1022.44 1022.68 1022.89 1022.95 1023.02 1023.17 1023.19 1023.26 1023.28 1023.42 1023.48 1023.55 1023.63 1023.68 1023.72 1023.66 1023.53 1023.81 1023.89 1023.93 1023.92 1023.84 1023.83 1023.62 1023.50 1023.44 1023.38 1023.29 1023.15 1022.91
1020.88 1021.21 1021.38 1021.52 1021.68 1021.84 1021.96 1022.09 1022.16 1022.27 1022.45 1022.57 1022.63 1022.72 1022.96 1023.29 1023.23 1023.38 1023.44 1023.54 1023.59 1023.65 1023.72 1023.76 1023.81 1023.90 1023.99 1024.02 1023.97 1024.07 1024.16 1024.21 1024.27 1024.25 1024.24 1024.14 1023.87 1023.75 1023.68 1023.67 1023.56 1023.45 1023.37
1021.04 1021.37 1021.52 1021.66 1021.81 1021.97 1022.08 1022.21 1022.34 1022.46 1022.61 1022.76 1022.85 1022.98 1023.29 1023.57 1023.66 1023.80 1023.71 1023.85 1023.95 1023.97 1023.99 1024.08 1024.15 1024.27 1024.33 1024.33 1024.28 1024.33 1024.40 1024.49 1024.55 1024.57 1024.51 1024.26 1024.00 1023.82 1023.76 1023.82 1023.78 1023.65 1023.44
1021.25 1021.54 1021.60 1021.79 1022.02 1022.13 1022.12 1022.22 1022.34 1022.50 1022.72 1022.97 1023.02 1023.24 1023.61 1023.80 1024.04 1024.22 1024.13 1024.30 1024.33 1024.31 1024.29 1024.43 1024.58 1024.69 1024.71 1024.67 1024.61 1024.60 1024.71 1024.78 1024.89 1024.88 1024.73 1024.49 1024.26 1023.95 1023.82 1023.79 1023.62 1023.53 1023.41
1021.48 1021.73 1021.81 1021.98 1022.16 1022.28 1022.26 1022.18 1022.36 1022.53 1022.71 1022.97 1023.17 1023.52 1023.90 1024.15 1024.41 1024.60 1024.65 1024.71 1024.70 1024.69 1024.69 1024.78 1024.88 1024.95 1024.94 1024.88 1024.91 1024.95 1025.04 1025.13 1025.19 1025.19 1025.00 1024.82 1024.47 1023.97 1023.85 1023.79 1023.78 1023.67 1023.61
1021.63 1021.93 1022.10 1022.21 1022.41 1022.50 1022.58 1022.46 1022.44 1022.56 1022.78 1023.03 1023.25 1023.75 1024.14 1024.46 1024.67 1024.81 1024.89 1024.97 1025.01 1025.08 1025.11 1025.14 1025.18 1025.18 1025.14 1025.10 1025.11 1025.26 1025.31 1025.38 1025.45 1025.45 1025.35 1025.09 1024.65 1024.15 1024.18 1024.10 1024.09 1024.09 1023.99
1021.72 1022.11 1022.34 1022.46 1022.63 1022.85 1022.90 1022.97 1022.94 1023.02 1023.10 1023.22 1023.50 1023.87 1024.35 1024.64 1024.87 1025.04 1025.14 1025.25 1025.31 1025.35 1025.36 1025.38 1025.36 1025.33 1025.30 1025.25 1025.21 1025.29 1025.41 1025.58 1025.66 1025.69 1025.45 1025.25 1024.75 1024.38 1024.47 1024.43 1024.39 1024.38 1024.31
1022.02 1022.30 1022.53 1022.74 1022.92 1023.16 1023.31 1023.30 1023.35 1023.43 1023.58 1023.70 1023.93 1024.16 1024.62 1024.97 1025.17 1025.34 1025.44 1025.47 1025.49 1025.53 1025.55 1025.57 1025.60 1025.59 1025.56 1025.47 1025.46 1025.54 1025.66 1025.85 1025.97 1025.91 1025.73 1025.45 1024.96 1024.82 1024.98 1025.00 1024.97 1024.95 1024.78
1022.43 1022.43 1022.61 1022.86 1023.14 1023.37 1023.58 1023.68 1023.69 1023.68 1023.82 1024.04 1024.29 1024.55 1024.87 1025.14 1025.36 1025.50 1025.63 1025.68 1025.67 1025.70 1025.71 1025.73 1025.74 1025.73 1025.77 1025.73 1025.69 1025.78 1025.85 1026.18 1026.19 1026.14 1025.94 1025.54 1025.27 1025.33 1025.41 1025.36 1025.32 1025.23 1025.18
1022.35 1022.68 1022.55 1022.94 1023.23 1023.46 1023.67 1023.99 1024.13 1024.21 1024.26 1024.34 1024.58 1024.86 1025.13 1025.26 1025.43 1025.53 1025.62 1025.66 1025.75 1025.81 1025.81 1025.82 1025.83 1025.77 1025.81 1025.86 1025.83 1025.87 1026.05 1026.37 1026.43 1026.42 1026.19 1025.85 1025.72 1025.73 1025.73 1025.66 1025.57 1025.70 1025.83
1021.76 1022.31 1022.65 1022.81 1023.16 1023.48 1023.70 1024.08 1024.29 1024.54 1024.58 1024.63 1024.80 1024.90 1025.09 1025.33 1025.57 1025.72 1025.85 1025.90 1026.00 1025.94 1026.01 1025.97 1025.95 1025.96 1025.94 1025.95 1025.91 1026.09 1026.28 1026.45 1026.49 1026.66 1026.47 1026.28 1026.21 1026.07 1025.97 1025.91 1026.11 1026.35 1026.26
1021.50 1021.81 1022.19 1022.59 1022.98 1023.43 1023.75 1024.09 1024.32 1024.45 1024.67 1024.87 1024.96 1025.09 1025.30 1025.42 1025.65 1025.80 1025.95 1025.99 1026.04 1026.02 1026.05 1026.05 1026.08 1025.96 1025.91 1025.86 1025.87 1026.04 1026.32 1026.61 1026.69 1026.87 1026.70 1026.57 1026.44 1026.36 1026.26 1026.41 1026.71 1026.72 1026.61
1021.11 1021.55 1021.81 1022.13 1022.68 1023.02 1023.57 1023.97 1024.36 1024.59 1024.63 1024.76 1025.01 1025.06 1025.29 1025.56 1025.69 1025.68 1025.79 1025.90 1025.94 1025.90 1025.96 1026.05 1026.00 1025.96 1025.96 1025.93 1025.92 1026.16 1026.45 1026.77 1026.89 1027.01 1027.01 1026.83 1026.64 1026.47 1026.39 1026.82 1026.95 1026.98 1026.88
1020.62 1020.97 1021.39 1021.69 1021.96 1022.50 1022.99 1023.62 1024.04 1024.33 1024.39 1024.61 1024.68 1024.78 1025.10 1025.30 1025.51 1025.65 1025.71 1025.71 1025.72 1025.70 1025.74 1025.84 1025.90 1025.97 1025.98 1025.95 1025.79 1025.91 1026.33 1026.74 1027.16 1027.31 1027.38 1027.37 1027.21 1027.01 1027.12 1027.28 1027.39 1027.44 1027.28
1020.21 1020.47 1020.79 1021.23 1021.32 1021.65 1022.17 1022.76 1023.20 1023.71 1024.09 1024.39 1024.56 1024.53 1024.56 1024.85 1025.24 1025.47 1025.64 1025.69 1025.63 1025.69 1025.80 1025.92 1025.99 1026.06 1026.11 1025.84 1025.73 1025.82 1026.18 1026.81 1027.33 1027.62 1027.78 1027.87 1027.81 1027.78 1027.94 1027.95 1027.93 1027.89 1027.63
1019.66 1020.13 1020.45 1020.77 1021.04 1021.15 1021.72 1022.15 1022.69 1023.10 1023.44 1023.73 1024.01 1024.35 1024.51 1024.60 1024.86 1025.15 1025.32 1025.36 1025.42 1025.53 1025.62 1025.77 1025.93 1026.08 1026.12 1026.10 1026.07 1026.17 1026.47 1027.08 1027.62 1027.78 1027.94 1028.15 1028.31 1028.41 1028.57 1028.60 1028.43 1028.39 1028.16
1019.08 1019.53 1020.04 1020.38 1020.80 1021.07 1021.53 1021.77 1022.20 1022.65 1023.05 1023.25 1023.53 1023.74 1023.88 1024.08 1024.30 1024.56 1024.79 1024.94 1025.07 1025.35 1025.52 1025.70 1026.00 1026.03 1026.15 1026.09 1026.00 1026.29 1026.52 1026.94 1027.58 1027.91 1028.27 1028.43 1028.52 1028.81 1029.03 1028.93 1028.94 1028.96 1028.62
1018.58 1019.24 1019.52 1019.97 1020.31 1020.68 1020.93 1021.63 1022.01 1022.48 1022.75 1022.88 1023.00 1023.21 1023.46 1023.74 1024.04 1024.44 1024.66 1024.81 1024.97 1025.19 1025.34 1025.55 1025.78 1025.85 1025.97 1026.02 1026.11 1026.55 1026.81 1027.33 1027.75 1028.19 1028.34 1028.54 1028.83 1028.97 1029.21 1029.38 1029.41 1029.32 1029.03
1018.35 1018.61 1018.98 1019.39 1019.68 1020.26 1020.73 1021.36 1021.77 1021.89 1022.46 1022.64 1022.52 1022.57 1022.93 1023.29 1023.69 1024.07 1024.21 1024.38 1024.70 1024.96 1025.16 1025.43 1025.77 1026.04 1026.08 1026.21 1026.46 1027.25 1027.67 1028.06 1028.40 1028.53 1028.53 1028.71 1029.07 1029.37 1029.48 1029.56 1029.76 1029.80 1029.59
1017.58 1017.84 1018.27 1018.46 1018.90 1019.44 1020.06 1020.49 1020.77 1021.40 1021.53 1021.53 1021.99 1022.33 1022.48 1022.67 1022.89 1023.33 1023.74 1024.13 1024.42 1024.77 1025.00 1025.22 1025.53 1025.86 1025.91 1025.94 1026.23 1026.87 1027.76 1028.54 1028.66 1028.95 1029.27 1029.15 1029.25 1029.51 1029.73 1029.82 1030.06 1030.26 1030.10
1016.64 1017.06 1017.24 1017.68 1018.17 1018.76 1019.28 1019.88 1020.51 1020.92 1021.42 1021.75 1021.85 1022.05 1021.98 1022.19 1022.40 1022.67 1023.07 1023.48 1023.87 1024.18 1024.43 1024.72 1025.10 1025.31 1025.46 1025.53 1025.49 1026.04 1027.08 1027.45 1028.32 1029.11 1029.20 1029.69 1029.77 1029.84 1030.00 1030.06 1030.33 1030.45 1030.35
1015.31 1015.86 1016.40 1016.94 1017.47 1017.92 1018.64 1019.08 1019.39 1019.80 1020.18 1020.31 1020.65 1020.93 1021.09 1021.41 1021.67 1021.93 1022.23 1022.61 1022.99 1023.46 1023.93 1023.99 1024.21 1024.65 1025.05 1025.26 1025.33 1025.17 1025.44 1026.28 1027.58 1028.97 1029.36 1029.68 1030.04 1030.14 1030.22 1030.23 1030.33 1030.39 1030.29
1014.53 1014.78 1015.22 1015.97 1016.58 1017.07 1017.71 1018.26 1018.72 1018.95 1019.17 1019.70 1020.11 1020.30 1020.41 1020.61 1020.86 1021.19 1021.58 1022.02 1022.37 1022.72 1022.81 1023.19 1023.67 1023.99 1024.18 1024.43 1024.73 1025.12 1025.73 1026.09 1026.61 1027.75 1029.00 1029.58 1030.06 1030.10 1030.21 1030.23 1030.42 1030.68 1030.71
1013.61 1014.10 1014.44 1015.09 1015.51 1016.18 1016.81 1017.47 1017.92 1018.22 1018.61 1019.11 1019.42 1019.73 1019.92 1019.97 1020.26 1020.41 1020.70 1021.03 1021.44 1021.85 1022.17 1022.33 1022.51 1023.06 1023.41 1023.73 1023.92 1024.15 1024.57 1025.28 1026.00 1026.78 1027.78 1028.76 1029.21 1029.77 1030.10 1030.28 1030.43 1030.52 1030.62
Thickness
5686 5688 5688 5688 5689 5688 5687 5688 5689 5691 5691 5691 5691 5692 5692 5693 5693 5693 5691 5690 5690 5689 5689 5688 5688 5688 5687 5687 5686 5686 5685 5684 5682 5682 5682 5682 5681 5679 5677 5676 5676 5674 5673
5691 5688 5687 5687 5688 5687 5688 5688 5689 5691 5690 5690 5690 5691 5692 5691 5691 5690 5689 5688 5688 5687 5687 5687 5686 5684 5684 5685 5685 5685 5682 5681 5680 5680 5679 5679 5678 5676 5675 5674 5673 5672 5670
5690 5688 5687 5687 5686 5687 5687 5688 5690 5691 5690 5689 5690 5691 5690 5688 5688 5688 5686 5686 5686 5687 5686 5685 5684 5683 5683 5683 5682 5683 5680 5679 5678 5677 5676 5676 5675 5674 5673 5671 5670 5669 5668
5690 5688 5687 5686 5686 5686 5687 5688 5690 5690 5689 5689 5690 5690 5688 5686 5686 5686 5685 5684 5685 5685 5684 5684 5683 5682 5682 5681 5680 5679 5678 5677 5676 5675 5675 5674 5673 5672 5670 5669 5668 5666 5664
5691 5688 5687 5686 5687 5686 5686 5688 5689 5690 5690 5690 5689 5689 5687 5685 5684 5683 5684 5684 5683 5683 5683 5682 5681 5681 5680 5679 5678 5677 5676 5675 5674 5673 5673 5673 5672 5671 5669 5667 5665 5665 5663
5691 5689 5688 5687 5686 5686 5687 5689 5690 5691 5690 5689 5689 5687 5685 5683 5682 5681 5682 5681 5681 5681 5681 5680 5679 5678 5677 5676 5676 5675 5674 5673 5673 5672 5672 5671 5670 5669 5668 5667 5666 5665 5663
5691 5688 5688 5687 5685 5685 5687 5690 5691 5691 5690 5689 5687 5685 5683 5681 5680 5679 5679 5679 5679 5679 5679 5678 5677 5676 5675 5675 5674 5673 5672 5671 5671 5669 5669 5669 5668 5668 5667 5667 5664 5662 5660
5690 5688 5686 5686 5685 5685 5686 5689 5690 5691 5690 5689 5687 5684 5681 5679 5678 5678 5677 5677 5676 5676 5676 5675 5675 5674 5674 5674 5672 5671 5670 5668 5667 5666 5666 5665 5666 5666 5665 5663 5660 5658 5655
5690 5687 5686 5686 5685 5683 5685 5686 5686 5687 5688 5687 5685 5683 5680 5678 5676 5675 5675 5674 5674 5674 5674 5673 5673 5673 5673 5672 5671 5670 5669 5667 5666 5665 5663 5663 5664 5664 5661 5659 5656 5653 5650
5689 5687 5686 5684 5684 5682 5682 5684 5684 5684 5685 5685 5683 5682 5679 5677 5675 5674 5673 5673 5673 5673 5672 5672 5671 5670 5670 5670 5669 5668 5667 5665 5663 5661 5660 5660 5660 5658 5654 5651 5648 5644 5642
5687 5687 5686 5685 5684 5682 5682 5682 5682 5683 5683 5682 5680 5679 5677 5676 5675 5674 5674 5673 5673 5672 5671 5670 5670 5669 5668 5668 5667 5665 5664 5661 5660 5658 5656 5655 5654 5651 5648 5645 5642 5639 5636
5686 5686 5687 5685 5683 5682 5680 5679 5679 5678 5679 5678 5677 5675 5674 5674 5674 5674 5674 5672 5671 5670 5669 5668 5667 5668 5667 5667 5666 5664 5662 5658 5656 5653 5652 5650 5648 5645 5643 5639 5636 5632 5628
5691 5688 5686 5686 5684 5682 5681 5679 5679 5677 5677 5677 5675 5675 5673 5672 5672 5672 5671 5670 5669 5669 5668 5667 5667 5666 5666 5665 5664 5661 5658 5656 5653 5649 5646 5644 5641 5639 5637 5633 5629 5624 5621
5692 5691 5689 5686 5685 5683 5681 5680 5679 5679 5676 5675 5674 5673 5672 5673 5672 5672 5671 5671 5670 5669 5668 5667 5666 5665 5664 5662 5661 5660 5656 5653 5650 5645 5643 5640 5637 5634 5630 5625 5620 5616 5613
5693 5691 5691 5689 5686 5685 5682 5679 5678 5677 5676 5674 5672 5672 5672 5672 5672 5672 5671 5670 5669 5669 5668 5666 5665 5664 5662 5660 5659 5657 5653 5649 5646 5642 5638 5635 5633 5629 5626 5619 5614 5609 5606
5696 5694 5693 5691 5690 5687 5685 5681 5679 5677 5677 5675 5674 5673 5671 5671 5670 5669 5669 5669 5668 5668 5667 5665 5663 5662 5660 5658 5657 5654 5650 5644 5639 5635 5631 5627 5623 5620 5616 5611 5605 5600 5596
5696 5697 5694 5693 5693 5691 5689 5685 5682 5679 5676 5675 5674 5673 5672 5672 5671 5670 5669 5667 5666 5664 5663 5661 5659 5657 5656 5655 5654 5651 5647 5640 5633 5628 5624 5619 5615 5610 5604 5600 5595 5591 5587
5697 5695 5695 5694 5691 5692 5690 5688 5683 5679 5677 5676 5674 5672 5671 5671 5669 5668 5667 5666 5664 5663 5662 5660 5657 5654 5653 5650 5648 5644 5640 5633 5627 5623 5619 5613 5607 5601 5595 5591 5587 5582 5577
5699 5696 5694 5695 5692 5691 5688 5686 5683 5680 5677 5675 5674 5672 5670 5669 5668 5667 5664 5662 5662 5659 5658 5655 5652 5649 5646 5646 5645 5640 5635 5631 5624 5617 5612 5606 5601 5595 5588 5583 5579 5572 5568
5699 5694 5694 5693 5692 5689 5688 5684 5681 5678 5675 5675 5675 5673 5670 5668 5666 5663 5661 5660 5659 5657 5655 5651 5648 5645 5643 5641 5639 5634 5629 5623 5618 5611 5607 5600 5594 5589 5582 5576 5571 5565 5559
5696 5694 5693 5692 5691 5687 5683 5680 5676 5677 5674 5673 5674 5674 5670 5666 5663 5660 5659 5659 5656 5653 5650 5646 5643 5639 5637 5634 5630 5622 5616 5611 5605 5602 5598 5594 5587 5579 5574 5569 5563 5557 5552
5696 5696 5694 5694 5693 5689 5685 5682 5682 5677 5677 5677 5673 5671 5669 5667 5665 5662 5659 5656 5653 5649 5646 5643 5638 5635 5632 5630 5624 5618 5609 5601 5596 5590 5584 5581 5578 5571 5565 5559 5553 5546 5541
5700 5698 5696 5693 5692 5689 5686 5682 5678 5677 5673 5671 5669 5667 5666 5665 5665 5663 5659 5656 5652 5648 5645 5640 5634 5632 5629 5626 5624 5614 5603 5604 5592 5581 5576 5568 5565 5561 5555 5550 5542 5535 5530
5706 5699 5697 5693 5691 5689 5685 5683 5682 5680 5677 5676 5674 5671 5669 5666 5663 5662 5659 5655 5651 5645 5640 5638 5634 5629 5624 5621 5619 5616 5610 5599 5591 5575 5568 5560 5554 5550 5544 5539 5533 5526 5521
5703 5703 5699 5695 5693 5691 5686 5683 5680 5681 5680 5674 5671 5670 5669 5667 5663 5660 5656 5652 5648 5644 5642 5637 5632 5628 5623 5619 5613 5607 5599 5591 5584 5575 5560 5551 5544 5540 5534 5530 5522 5514 5507
5704 5702 5700 5696 5694 5691 5687 5682 5680 5678 5676 5672 5669 5666 5665 5666 5663 5661 5656 5652 5648 5644 5639 5636 5633 5627 5621 5616 5612 5606 5599 5590 5580 5570 5559 5546 5541 5533 5525 5519 5512 5504 5497